Regional Weather Roundup
Issued by NWS Wakefield, VA

Home | Current Version | Previous Version | Text Only | Print | Product List | Glossary On
Versions: 1 2 3 4 5 6 7 8 9 10 11 12 13 14 15 16 17 18 19 20 21 22 23 24 25 26 27
000
ASUS41 KAKQ 311015
RWRAKQ

REGIONAL WEATHER ROUNDUP
NATIONAL WEATHER SERVICE WAKEFIELD VA
600 AM EDT TUE MAY 31 2016

Note: "fair" indicates few or no clouds below 12,000 feet with no
significant weather and/or obstructions to visibility. * = Denotes
station may not report precipitation (e.g., rain,snow,etc.),
thunder or fog.

VAZ042-051-052>054-056-311100-
NORTHERN VIRGINIA

CITY           SKY/WX    TMP DP  RH WIND       PRES   REMARKS
WASH NATIONAL  CLOUDY    72  64  76 NW5       29.95S
DULLES         FOG       69  67  93 CALM      29.96S VSB 1/4
FORT BELVOIR     N/A    N/A N/A N/A CALM        N/A
QUANTICO       MOCLDY    68  66  93 NW3       29.96S
FREDERICKSBRG* CLOUDY    66  66 100 CALM      29.94F FOG
STAFFORD*      CLOUDY    62  61  97 CALM      29.99S VSB 1/4
WARRENTON      CLOUDY    69  65  85 CALM      29.95S FOG
CULPEPER*      CLOUDY    69  69  99 CALM      29.97R
MANASSAS*      CLOUDY    68  68 100 CALM      29.95F
LEESBURG*      CLOUDY    70  70 100 CALM      29.97S FOG
WINCHESTER     FAIR      61  61 100 CALM      29.98R FOG
FRONT ROYAL*   CLOUDY    64  64 100 SW3       29.97R VSB 1/2
LURAY*         FOG       63  63 100 CALM      29.99R VSB<1/4
$$

VAZ048-049-060>072-079>083-311100-
CENTRAL AND SOUTH CENTRAL VIRGINIA

CITY           SKY/WX    TMP DP  RH WIND       PRES   REMARKS
RICHMOND       CLOUDY    66  65  96 CALM      29.94S FOG
CHESTERFIELD*    N/A    N/A N/A N/A MISG        N/A
PETERSBURG*    CLOUDY    68  68 100 N3        29.95S FOG
HANOVER        FOG       66  64  93 CALM      29.96S VSB 1/2
TAPPAHANNOCK*  FOG       67  67 100 CALM      29.96S VSB<1/4
QUINTON*       CLOUDY    65  65 100 CALM      29.94S FOG
CHARLOTTSVILLE FOG       64  62  93 W5        29.97R VSB 1/4
GORDONSVILLE*  FOG       65  65 100 CALM      29.96R VSB 1/4
ORANGE*        MOCLDY    66  66 100 CALM      29.98R FOG
LOUISA*        MOCLDY    64  64 100 CALM      29.95S FOG
BUMPASS*       CLOUDY    65  65 100 CALM      29.95F VSB 1/4
FARMVILLE*     FOG       68  68 100 CALM      29.95R VSB 1/2
CREWE*         CLOUDY    67  67 100 CALM      29.95S VSB 1/4
FORT PICKETT*  NOT AVBL
CHASE CITY*    CLOUDY    67  65  94 CALM      29.96R VSB 1/2
CLARKSVILLE*   CLOUDY    68  68 100 CALM      29.94S VSB 1
SOUTH HILL*    CLOUDY    67  67 100 CALM      30.00F VSB 3/4
LAWRENCEVILLE* CLOUDY    67  67 100 CALM      29.95R VSB 1/4
EMPORIA*       CLOUDY    64  64 100 CALM      29.96R
$$

VAZ088>098-311100-
SOUTHEAST VIRGINIA

CITY           SKY/WX    TMP DP  RH WIND       PRES   REMARKS
NORFOLK        MOCLDY    70  67  90 E3        29.93R
VIRGINIA BEACH CLOUDY    73  67  81 CALM      29.92R
NORFOLK NAVAL  CLOUDY    70  68  93 CALM      29.94S FOG
WEST POINT*    CLOUDY    68  67  99 CALM      29.96R
SALUDA*        CLOUDY    68  68 100 N3        29.95R
NEWPORT NEWS   CLOUDY    69  69 100 CALM      29.93S
LANGLEY AFB    CLOUDY    70  70 100 CALM      29.93S
FORT EUSTIS    CLOUDY    69  52  53 W2        29.92R
WILLIAMSBURG*  CLOUDY    70  70 100 CALM      29.95R
HR EXEC AP*      N/A     70  66  88 CALM      29.95S
FRANKLIN*      CLOUDY    68  67  98 CALM      29.94S FOG
US460-WAKEFLD  FOG       67  66  97 CALM      29.94R VSB 1/2
$$

VAZ020-022-025-037-045-311100-
WEST CENTRAL AND SOUTHWEST VIRGINIA

CITY           SKY/WX    TMP DP  RH WIND       PRES   REMARKS
STAUNTON*      FOG       60  60  99 CALM      30.03R VSB 1/4
WAYNESBORO*    FAIR      60  59  97 CALM      30.01S
HOT SPRINGS VA FAIR      63  57  79 NE6       30.09R
LYNCHBURG      MOCLDY    66  65  96 CALM      29.98S
DANVILLE       CLOUDY    69  68  96 CALM      29.96S FOG
SOUTH BOSTON*  CLOUDY    68  67  96 CALM      29.96R VSB 1/2
MARTINSVILLE   CLOUDY    60  60 100 CALM      30.00S FOG
ROANOKE        FAIR      64  62  93 CALM      30.02R
BLACKSBURG     FOG       61  61 100 CALM      30.06S VSB 1/4
DUBLIN*        FOG       61  61 100 CALM      30.05S VSB 3/4
MARION*        MOCLDY    57  56  96 CALM      30.08S FOG
HILLSVILLE*    CLOUDY    61  61 100 CALM      30.04S FOG
RICHLANDS*     FAIR      63  58  84 CALM      30.05S
WISE*          FAIR      63  61  94 CALM      30.07S
ABINGDON*      FAIR      62  62  98 CALM      30.03S
$$

MDZ021>025-VAZ099-100-311100-
SOUTHERN MARYLAND AND THE DELMARVA PENINSULA

CITY           SKY/WX    TMP DP  RH WIND       PRES   REMARKS
PATUXENT RIVER CLOUDY    68  66  93 W3        29.95R
BAY BRIDGE APT PTCLDY    66  66 100 CALM      29.95S FOG
LEONARDTOWN    CLOUDY    64  64 100 CALM      29.97R
DOVER          CLOUDY    68  68 100 S1        29.95R
GEORGETOWN     CLOUDY    67  66  97 CALM      29.96R
EASTON         CLOUDY    68  68 100 CALM      29.99R FOG
CAMBRIDGE        N/A     63  63 100 CALM      29.95S
SALISBURY      CLOUDY    66  66 100 CALM      29.95R
OCEAN CITY     CLOUDY    65  65 100 CALM      29.95R FOG
WALLOPS ISLAND CLOUDY    69  69 100 CALM      29.94S
ACCOMACK*      FOG       66  64  94 CALM      29.94R VSB 1/2
$$

NCZ012>017-030>032-311100-
NORTH CENTRAL AND EASTERN NORTH CAROLINA

CITY           SKY/WX    TMP DP  RH WIND       PRES   REMARKS
ROANOKE RAPIDS FOG       68  68 100 CALM      29.94S VSB 1/2
RALEIGH        CLOUDY    70  69  97 CALM      29.94R FOG
ELIZABETH CITY CLOUDY    70  69  97 CALM      29.93R
AHOSKIE*       FOG       68  67  98 CALM      29.94S VSB 3/4
EDENTON*       CLOUDY   N/A N/A N/A NE3       29.93S FOG
CURRITUCK*     CLOUDY    70  70 100 CALM      29.94S
KILL DEVIL HLS FOG       67  67 100 CALM      29.91F VSB 1/4
MANTEO         NOT AVBL
CAPE HATTERAS  MOCLDY    70  69  97 NE5       29.91S
TARBORO*       CLOUDY    70  69  98 CALM      29.94S
GOLDSBORO      CLOUDY    70  70 100 NE6       29.91R
WASHINGTON     FOG       68  68  99 N3        29.93R VSB 1/2
GREENVILLE     CLOUDY    70  70 100 N5        29.95S FOG
NEW BERN       CLOUDY    71  69  93 NE7       29.92R
WILMINGTON     CLOUDY    71  70  96 NE7       29.88S
$$

VAZ048-311100-
ELSEWHERE

CITY           SKY/WX    TMP DP  RH WIND       PRES   REMARKS
HARRISBURG PA  CLOUDY    67  64  90 N7        29.96R FOG
BALTIMORE      PTCLDY    67  65  93 CALM      29.94S
ANNAPOLIS      CLEAR     67  66  97 CALM      29.94S
ANDREWS AFB    CLOUDY    66  64  94 CALM      29.95R
PHILADELPHIA   CLOUDY    71  67  87 SW3       29.95S
HENDERSON NC   FOG       67  66  99 CALM      29.95S VSB 1/2
GREENSBORO     PTCLDY    66  64  93 N3        29.95S
ROCKY MOUNT    CLOUDY    70  70 100 CALM      29.94R
$$

VAZ100-311100-
MARINE

STATION/POSITION TIME  TEMP    WIND        PRES    WAVE   SWELL
                       AIR SEA DIR/SP/G            HT/PER HT/PER
                 (UTC) (F)     (DEG/KT/KT) (MB)    (FT/S) (FT/S)
BRANDYWINE LGT   0900   67     360/  4/  6 1014.2R
CAPE MAY NJ      0900   65 69  110/  1/  1 1014.0R
LEWES DE         0900   67 63   10/  1/  1 1014.0R
15NM E FENWICK I 0950   65 65              1014.0S   4/ 8
OCEAN-CITY-INLET 0900   65 58  100/  5/  6 1014.0S
WACHAPREAGUE VA  0900   67 73   60/  5/  5 1013.1R
THOMAS POINT MD  1000   69 70  180/  3/  3 1015.5R
GOOSES REEF MD   0900   69 69  320/  4/  6 1014.8S   0
COVE POINT MD    0900   67      CALM  /  1 1014.4R
SOLOMONS ISLAND  0900   68 67  240/  2/  2   N/A
BISHOPS HEAD MD  0900   68 72   30/  2/  4 1013.8R
PINEY POINT MD   0900          210/  4/  4   N/A
POTOMAC MD       0900   69 71   CALM  /  2 1012.7S   0
CAMBRIDGE MD     0900   67 70   CALM  /  2 1012.9R
LEWISETTA VA     0900   68 71     CALM     1013.4S
RAPPAHANNOCK LGT 0900           CALM  /  1 1014.0R
STINGRAY PT      0900   69 69   80/  2/  2 1013.8S   1
YORK RVR RNG VA  0900   69      90/  3/  4 1012.7S
YORKTOWN VA      0900   70 70  160/  2/  3 1013.0S
JAMESTOWN VA     0900   69 75  350/  2/  4   N/A     0
DOMINION TERM VA 0900   70      CALM  /  1 1013.4R
KIPTOPEKE VA     0900      69   30/  1/  2   N/A
CHES BAY BRIDGE  0900   69 66   40/  3/  3 1013.3R
CAPE HENRY VA    0900   68      10/  2/  2   N/A
CHESAPEAKE LGHT  0900   69      20/  4/  4 1014.0R
WILLOUBY STN VA  0900   69      80/  4/  4 1014.3R
CAPE HENRY BUOY  0912      68                N/A     3/ 7
1ST LANDING BUOY 0900   68 69   70/  2/  2 1013.3R   2/ 4
CAPE CHARLES BUO 0926      69                N/A     3/ 8   3/ 7
OFFSHORE WE BUOY 0921      70                N/A     4/ 7   5/ 7
64NM E OF VA BCH 0950   65 65  310/  8/ 10 1012.4R   6/ 8   7/ 8
DUCK PIER NC     0900   65 58   10/  6/  7 1012.6R
44100 DUCK FRF   0924      67                N/A     5/ 8
44056 DUCK FRF   0911      62                N/A     4/ 7
OREGON INLET NC  0900   67 74  350/  3/  5 1013.0R
HATTERAS NC      0900   71 74   60/  3/  4 1012.1S
DIAMOND SHLS NC  0950   78 80  210/ 14/ 16 1012.4R   6/ 8   5/ 8
CAPE LOOKOUT NC1F1C2F2C3F3C4F4C5F5C6F6C7F7C8M1C9!



USA.gov is the U.S. government's official web portal to all federal, state and local government web resources and services.